KC3BHK-2 Weather Reports


Display with metric or nautical units.
time (UTC)temp
F
wind
direction
speed
MPH
gust
MPH
rain 1hr
in
rain 24hr
in
rain mn
in
humidity
%
barometer
mb
20260831034004 71 200 0.0 0.0 0.00 0.00 0.00
20260831033459 71 200 0.0 0.0 0.00 0.00 0.00
20260831032955 70 200 0.0 0.0 0.00 0.00 0.00
20260831032450 71 200 0.0 0.0 0.00 0.00 0.00
20260831031941 71 200 0.0 0.0 0.00 0.00 0.00
20260831031436 71 200 0.0 0.0 0.00 0.00 0.00
20260831030931 72 200 0.0 0.0 0.00 0.00 0.00
20260831030427 71 200 0.0 0.0 0.00 0.00 0.00
20260831025922 71 200 0.0 0.0 0.00 0.00 0.00
20260831025417 71 200 0.0 0.0 0.00 0.00 0.00
20260831024908 71 200 0.0 0.0 0.00 0.00 0.00
20260831023354 71 200 0.0 0.0 0.00 0.00 0.00
20260831022849 70 200 0.0 0.0 0.00 0.00 0.00
20260831022344 71 200 0.0 0.0 0.00 0.00 0.00
20260831021835 72 200 0.0 0.0 0.00 0.00 0.00
20260831021330 72 200 0.0 2.0 0.00 0.00 0.00
20260831020825 71 200 0.0 2.0 0.00 0.00 0.00
20260831015815 72 181 0.0 0.0 0.00 0.00 0.00
20260831015309 71 181 0.0 0.0 0.00 0.00 0.00
20260831014802 73 181 0.0 0.0 0.00 0.00 0.00
20260831014257 72 181 0.0 0.0 0.00 0.00 0.00
20260831013752 71 181 0.0 5.0 0.00 0.00 0.00
20260831013248 72 198 2.0 4.0 0.00 0.00 0.00
20260831012743 73 232 3.0 4.0 0.00 0.00 0.00
20260831012238 73 210 3.0 7.0 0.00 0.00 0.00
20260831011730 72 194 4.0 8.0 0.00 0.00 0.00
20260831011226 73 238 5.0 5.0 0.00 0.00 0.00
20260831010721 73 204 3.0 6.0 0.00 0.00 0.00
20260831010216 74 212 5.0 10.0 0.00 0.00 0.00
20260831005711 75 210 4.0 9.0 0.00 0.00 0.00
20260831005207 74 122 3.0 6.0 0.00 0.00 0.00
20260831004659 74 152 4.0 7.0 0.00 0.00 0.00
20260831004154 75 160 3.0 8.0 0.00 0.00 0.00
20260831003649 76 155 8.0 7.0 0.00 0.00 0.00
20260831003144 76 120 6.0 8.0 0.00 0.00 0.00
20260831002640 76 179 7.0 9.0 0.00 0.00 0.00
20260831002135 77 170 5.0 9.0 0.00 0.00 0.00
20260831001627 78 179 7.0 9.0 0.00 0.00 0.00
20260831001123 77 170 6.0 9.0 0.00 0.00 0.00
20260831000618 76 169 4.0 9.0 0.00 0.00 0.00
20260831000113 77 159 2.0 4.0 0.00 0.00 0.00
20260830235607 77 111 0.0 2.0 0.00 0.00 0.00
20260830235101 78 113 2.0 2.0 0.00 0.00 0.00
20260830234552 79 111 1.0 1.0 0.00 0.00 0.00
20260830234047 79 191 0.0 0.0 0.00 0.00 0.00
20260830233542 79 191 0.0 0.0 0.00 0.00 0.00
20260830233036 81 191 0.0 0.0 0.00 0.00 0.00
20260830232531 82 191 0.0 0.0 0.00 0.00 0.00
20260830232026 83 191 0.0 0.0 0.00 0.00 0.00
20260830231518 82 191 0.0 0.0 0.00 0.00 0.00
20260830231014 82 191 0.0 0.0 0.00 0.00 0.00
20260830230509 85 191 0.0 0.0 0.00 0.00 0.00
20260830230004 85 191 0.0 0.0 0.00 0.00 0.00
20260830225500 84 191 0.0 0.0 0.00 0.00 0.00
20260830224955 84 191 0.0 0.0 0.00 0.00 0.00
20260830224446 83 191 0.0 0.0 0.00 0.00 0.00
20260830223942 85 191 0.0 0.0 0.00 0.00 0.00
20260830223437 84 191 0.0 0.0 0.00 0.00 0.00
20260830222932 83 191 0.0 0.0 0.00 0.00 0.00
20260830222427 82 191 0.0 0.0 0.00 0.00 0.00
20260830221923 83 191 0.0 0.0 0.00 0.00 0.00
20260830221415 83 191 0.0 2.0 0.00 0.00 0.00
20260830220910 83 191 0.0 3.0 0.00 0.00 0.00
20260830220405 83 255 3.0 2.0 0.00 0.00 0.00
20260830215901 83 226 1.0 3.0 0.00 0.00 0.00
20260830215356 83 253 2.0 4.0 0.00 0.00 0.00
20260830214851 85 242 3.0 6.0 0.00 0.00 0.00
20260830214344 87 249 5.0 6.0 0.00 0.00 0.00
20260830213839 88 225 5.0 5.0 0.00 0.00 0.00
20260830213334 88 226 3.0 6.0 0.00 0.00 0.00
20260830212829 88 162 3.0 7.0 0.00 0.00 0.00
20260830212324 91 222 4.0 6.0 0.00 0.00 0.00
20260830211312 93 111 1.0 5.0 0.00 0.00 0.00
20260830210807 92 110 4.0 5.0 0.00 0.00 0.00
20260830210302 91 169 2.0 7.0 0.00 0.00 0.00
20260830205757 91 129 5.0 7.0 0.00 0.00 0.00
20260830205252 91 125 3.0 6.0 0.00 0.00 0.00
20260830204747 92 65 3.0 7.0 0.00 0.00 0.00
20260830204240 92 124 2.0 4.0 0.00 0.00 0.00
20260830203735 90 162 2.0 5.0 0.00 0.00 0.00
20260830203230 86 114 5.0 5.0 0.00 0.00 0.00
20260830202725 86 169 3.0 7.0 0.00 0.00 0.00
20260830201716 86 156 6.0 6.0 0.00 0.00 0.00
20260830201205 87 125 4.0 4.0 0.00 0.00 0.00
20260830200700 87 87 1.0 3.0 0.00 0.00 0.00
20260830200156 86 158 0.0 2.0 0.00 0.00 0.00
20260830195650 86 158 0.0 4.0 0.00 0.00 0.00
20260830195145 87 108 2.0 6.0 0.00 0.00 0.00
20260830194640 85 103 4.0 4.0 0.00 0.00 0.00
20260830194131 86 141 3.0 4.0 0.00 0.00 0.00
20260830193627 86 232 1.0 5.0 0.00 0.00 0.00
20260830193122 85 173 2.0 4.0 0.00 0.00 0.00
20260830192617 84 207 2.0 7.0 0.00 0.00 0.00
20260830192112 84 179 4.0 6.0 0.00 0.00 0.00
20260830191608 86 104 3.0 5.0 0.00 0.00 0.00
20260830191100 86 150 1.0 6.0 0.00 0.00 0.00
20260830190555 87 219 1.0 9.0 0.00 0.00 0.00
20260830190050 90 186 4.0 8.0 0.00 0.00 0.00
20260830185544 89 132 4.0 6.0 0.00 0.00 0.00
20260830185039 88 117 3.0 8.0 0.00 0.00 0.00
20260830184026 85 173 4.0 7.0 0.00 0.00 0.00
20260830183522 83 93 3.0 8.0 0.00 0.00 0.00
20260830183017 82 132 4.0 5.0 0.00 0.00 0.00
20260830182512 83 143 2.0 8.0 0.00 0.00 0.00
20260830182007 83 142 4.0 9.0 0.00 0.00 0.00
20260830181503 84 165 6.0 12.0 0.00 0.00 0.00
20260830180955 85 138 6.0 9.0 0.00 0.00 0.00
20260830180450 87 138 8.0 10.0 0.00 0.00 0.00
20260830175945 85 184 5.0 14.0 0.00 0.00 0.00
20260830175440 85 172 6.0 10.0 0.00 0.00 0.00
20260830174936 82 148 6.0 12.0 0.00 0.00 0.00
20260830174431 83 238 7.0 10.0 0.00 0.00 0.00
20260830173923 83 166 4.0 11.0 0.00 0.00 0.00
20260830173418 81 148 6.0 13.0 0.00 0.00 0.00
20260830172914 82 215 9.0 11.0 0.00 0.00 0.00
20260830172409 82 158 6.0 14.0 0.00 0.00 0.00
20260830171904 83 145 10.0 9.0 0.00 0.00 0.00
20260830171359 82 218 5.0 12.0 0.00 0.00 0.00
20260830170852 82 124 3.0 13.0 0.00 0.00 0.00
20260830170347 82 184 8.0 11.0 0.00 0.00 0.00
20260830165842 83 181 6.0 12.0 0.00 0.00 0.00
20260830164832 83 203 5.0 10.0 0.00 0.00 0.00
20260830164328 83 201 6.0 9.0 0.00 0.00 0.00
20260830163819 80 225 4.0 7.0 0.00 0.00 0.00
20260830163314 79 172 5.0 7.0 0.00 0.00 0.00
20260830162807 78 163 2.0 5.0 0.00 0.00 0.00
20260830162305 78 145 4.0 9.0 0.00 0.00 0.00
20260830161758 78 176 4.0 9.0 0.00 0.00 0.00
20260830161253 81 162 6.0 9.0 0.00 0.00 0.00
20260830160745 80 193 4.0 9.0 0.00 0.00 0.00
20260830160241 79 177 6.0 8.0 0.00 0.00 0.00
20260830155736 79 204 5.0 9.0 0.00 0.00 0.00
20260830155231 78 163 4.0 9.0 0.00 0.00 0.00
20260830154726 80 165 7.0 10.0 0.00 0.00 0.00
20260830154221 80 165 4.0 11.0 0.00 0.00 0.00
20260830152703 78 228 8.0 10.0 0.00 0.00 0.00
20260830152159 78 165 6.0 10.0 0.00 0.00 0.00
20260830151654 79 194 6.0 11.0 0.00 0.00 0.00
20260830151149 79 173 6.0 12.0 0.00 0.00 0.00
20260830150641 78 166 5.0 12.0 0.00 0.00 0.00
20260830145632 78 167 5.0 10.0 0.00 0.00 0.00
20260830145127 78 170 9.0 11.0 0.00 0.00 0.00
20260830144622 76 186 4.0 9.0 0.00 0.00 0.00
20260830144117 77 152 5.0 9.0 0.00 0.00 0.00
20260830143610 77 152 3.0 7.0 0.00 0.00 0.00
20260830143105 77 197 4.0 7.0 0.00 0.00 0.00
20260830142600 75 177 3.0 8.0 0.00 0.00 0.00
20260830142055 74 174 6.0 9.0 0.00 0.00 0.00
20260830141550 74 163 4.0 8.0 0.00 0.00 0.00
20260830141046 74 127 5.0 6.0 0.00 0.00 0.00
20260830140538 75 129 2.0 9.0 0.00 0.00 0.00
20260830140033 73 211 4.0 10.0 0.00 0.00 0.00
20260830135528 74 125 10.0 8.0 0.00 0.00 0.00
20260830135023 75 153 6.0 9.0 0.00 0.00 0.00
20260830134519 74 215 8.0 10.0 0.00 0.00 0.00
20260830134014 73 141 8.0 9.0 0.00 0.00 0.00
20260830133506 73 205 5.0 9.0 0.00 0.00 0.00
20260830133001 73 165 8.0 10.0 0.00 0.00 0.00
20260830132457 73 190 9.0 9.0 0.00 0.00 0.00
20260830131951 73 204 5.0 11.0 0.00 0.00 0.00
20260830131446 72 174 3.0 9.0 0.00 0.00 0.00
20260830130941 73 169 4.0 10.0 0.00 0.00 0.00
20260830125424 72 173 3.0 8.0 0.00 0.00 0.00
20260830124919 72 143 4.0 7.0 0.00 0.00 0.00
20260830124414 72 160 5.0 6.0 0.00 0.00 0.00
20260830123402 72 177 6.0 5.0 0.00 0.00 0.00
20260830122857 71 221 3.0 5.0 0.00 0.00 0.00
20260830122352 71 208 3.0 5.0 0.00 0.00 0.00
20260830121847 70 163 3.0 3.0 0.00 0.00 0.00
20260830121342 71 103 0.0 0.0 0.00 0.00 0.00
20260830120837 70 103 0.0 0.0 0.00 0.00 0.00
20260830120330 68 103 0.0 0.0 0.00 0.00 0.00
20260830115825 68 103 0.0 0.0 0.00 0.00 0.00
20260830115320 68 103 0.0 0.0 0.00 0.00 0.00
20260830114815 67 103 0.0 0.0 0.00 0.00 0.00
20260830114310 66 103 0.0 0.0 0.00 0.00 0.00
20260830113805 67 103 0.0 0.0 0.00 0.00 0.00
20260830113257 66 103 0.0 0.0 0.00 0.00 0.00
20260830112752 66 103 0.0 0.0 0.00 0.00 0.00
20260830112247 66 103 0.0 0.0 0.00 0.00 0.00
20260830111237 66 103 0.0 0.0 0.00 0.00 0.00
20260830110732 66 103 0.0 0.0 0.00 0.00 0.00
20260830110225 66 103 0.0 0.0 0.00 0.00 0.00
20260830105719 65 103 0.0 0.0 0.00 0.00 0.00
20260830105215 65 103 0.0 0.0 0.00 0.00 0.00
20260830104710 64 103 0.0 0.0 0.00 0.00 0.00
20260830104205 66 103 0.0 0.0 0.00 0.00 0.00
20260830103700 64 103 0.0 0.0 0.00 0.00 0.00
20260830103152 64 103 0.0 0.0 0.00 0.00 0.00
20260830102142 64 103 0.0 0.0 0.00 0.00 0.00
20260830101637 64 103 0.0 0.0 0.00 0.00 0.00
20260830101132 64 103 0.0 0.0 0.00 0.00 0.00
20260830100628 64 103 0.0 0.0 0.00 0.00 0.00
20260830100338 65 103 0.0 0.0 0.00 0.00 0.00
20260830100120 65 103 0.0 0.0 0.00 0.00 0.00
20260830095615 64 103 0.0 0.0 0.00 0.00 0.00
20260830095110 64 103 0.0 0.0 0.00 0.00 0.00
20260830094605 64 103 0.0 0.0 0.00 0.00 0.00
20260830094059 64 103 0.0 0.0 0.00 0.00 0.00
20260830093554 65 103 0.0 0.0 0.00 0.00 0.00
20260830093047 64 103 0.0 0.0 0.00 0.00 0.00
20260830092542 64 103 0.0 0.0 0.00 0.00 0.00
20260830092037 64 103 0.0 0.0 0.00 0.00 0.00
20260830091532 64 103 0.0 0.0 0.00 0.00 0.00
20260830091027 64 103 0.0 0.0 0.00 0.00 0.00
20260830090522 65 103 0.0 0.0 0.00 0.00 0.00
20260830090014 65 103 0.0 0.0 0.00 0.00 0.00
20260830085510 66 103 0.0 0.0 0.00 0.00 0.00
20260830085005 66 103 0.0 0.0 0.00 0.00 0.00
20260830084500 65 103 0.0 0.0 0.00 0.00 0.00
20260830083955 66 103 0.0 0.0 0.00 0.00 0.00
20260830083450 65 103 0.0 0.0 0.00 0.00 0.00
20260830082942 66 103 0.0 0.0 0.00 0.00 0.00
20260830081427 65 103 0.0 0.0 0.00 0.00 0.00
20260830080922 66 103 0.0 0.0 0.00 0.00 0.00
20260830080417 65 103 0.0 0.0 0.00 0.00 0.00
20260830075909 65 103 0.0 0.0 0.00 0.00 0.00
20260830075404 65 103 0.0 0.0 0.00 0.00 0.00
20260830074859 64 103 0.0 0.0 0.00 0.00 0.00
20260830074354 64 103 0.0 0.0 0.00 0.00 0.00
20260830073850 64 103 0.0 0.0 0.00 0.00 0.00
20260830073345 64 103 0.0 0.0 0.00 0.00 0.00
20260830072837 64 103 0.0 0.0 0.00 0.00 0.00
20260830072332 62 103 0.0 0.0 0.00 0.00 0.00
20260830071827 63 103 0.0 0.0 0.00 0.00 0.00
20260830071322 63 103 0.0 0.0 0.00 0.00 0.00
20260830070817 64 103 0.0 0.0 0.00 0.00 0.00
20260830065805 65 103 0.0 0.0 0.00 0.00 0.00
20260830065300 65 103 0.0 0.0 0.00 0.00 0.00
20260830064755 65 103 0.0 0.0 0.00 0.00 0.00
20260830064250 65 103 0.0 0.0 0.00 0.00 0.00
20260830063745 64 103 0.0 0.0 0.00 0.00 0.00
20260830063240 66 103 0.0 0.0 0.00 0.00 0.00
20260830062733 64 103 0.0 0.0 0.00 0.00 0.00
20260830062228 64 103 0.0 0.0 0.00 0.00 0.00
20260830061723 64 103 0.0 0.0 0.00 0.00 0.00
20260830061218 64 103 0.0 0.0 0.00 0.00 0.00
20260830060208 65 103 0.0 4.0 0.00 0.00 0.00
20260830055700 63 107 0.0 3.0 0.00 0.00 0.00
20260830055155 64 217 0.0 0.0 0.00 0.00 0.00
20260830054651 65 217 0.0 0.0 0.00 0.00 0.00
20260830054146 65 217 0.0 0.0 0.00 0.00 0.00
20260830053641 65 217 0.0 0.0 0.00 0.00 0.00
20260830053136 63 217 0.0 0.0 0.00 0.00 0.00
20260830052628 65 217 0.0 0.0 0.00 0.00 0.00
20260830051618 64 217 0.0 0.0 0.00 0.00 0.00
20260830051114 65 217 0.0 0.0 0.00 0.00 0.00
20260830050609 65 217 0.0 0.0 0.00 0.00 0.00
20260830045555 64 217 0.0 0.0 0.00 0.00 0.00
20260830045050 64 217 0.0 0.0 0.00 0.00 0.00
20260830044545 64 217 0.0 0.0 0.00 0.00 0.00
20260830044040 65 217 0.0 0.0 0.00 0.00 0.00
20260830043535 64 217 0.0 0.0 0.00 0.00 0.00
20260830043030 63 217 0.0 0.0 0.00 0.00 0.00
20260830042522 64 217 0.0 0.0 0.00 0.00 0.00
20260830042018 63 217 0.0 0.0 0.00 0.00 0.00
20260830041513 62 217 0.0 0.0 0.00 0.00 0.00
20260830041008 62 217 0.0 0.0 0.00 0.00 0.00
20260830040503 62 217 0.0 0.0 0.00 0.00 0.00
20260830035958 62 217 0.0 0.0 0.00 0.00 0.00
20260830035450 62 217 0.0 0.0 0.00 0.00 0.00
20260830034945 62 217 0.0 0.0 0.00 0.00 0.00
20260830034439 62 217 0.0 0.0 0.00 0.00 0.00